Date,TemperatureHighF,TemperatureAvgF,TemperatureLowF,DewpointHighF,DewpointAvgF,DewpointLowF,HumidityHigh,HumidityAvg,HumidityLow,PressureMaxIn,PressureMinIn,WindSpeedMaxMPH,WindSpeedAvgMPH,GustSpeedMaxMPH,PrecipitationSumIn
2013-1-1,33.3,26.5,12.9,24.0,19.4,10.2,89,75,59,30.15,30.05,12,2,13,0.00
2013-1-2,25.6,16.7,10.2,16.2,11.0,6.8,92,78,65,30.22,30.13,8,1,12,0.00
2013-1-3,30.2,23.2,9.4,25.2,17.9,6.2,89,80,73,30.24,30.12,15,2,17,0.00
2013-1-4,30.0,23.2,14.7,22.7,17.7,10.8,92,79,69,30.24,30.15,19,4,19,0.00
2013-1-5,34.9,27.0,15.1,30.6,23.0,12.8,94,85,75,30.27,30.01,14,2,17,0.00
2013-1-6,35.5,33.1,28.5,31.6,28.6,23.5,92,83,76,30.30,29.91,17,4,23,0.00
2013-1-7,35.1,27.1,16.1,27.1,22.2,13.7,93,82,69,30.37,30.14,16,3,19,0.00
2013-1-8,38.0,29.9,22.1,29.8,25.0,19.6,92,82,71,30.22,30.09,10,2,12,0.00
2013-1-9,49.7,40.8,28.2,34.8,29.8,22.1,87,66,37,30.45,30.05,20,4,25,0.00
2013-1-10,42.2,32.8,22.3,36.7,28.0,20.0,100,83,65,30.50,30.02,9,1,11,0.36
2013-1-11,55.1,48.2,36.9,51.5,45.6,35.6,97,91,82,30.02,29.72,18,4,23,0.62
2013-1-12,60.4,51.2,39.0,50.0,45.0,37.0,93,80,59,29.91,29.75,13,3,16,0.36
2013-1-13,38.9,33.3,21.8,37.3,31.2,17.4,95,92,83,30.16,29.76,18,4,22,0.34
2013-1-14,25.8,21.6,16.5,19.2,16.4,13.2,92,80,70,30.45,30.17,15,2,21,0.00
2013-1-15,31.6,21.6,11.7,22.8,16.7,8.9,91,82,64,30.43,30.15,7,0,7,0.00
2013-1-16,36.4,27.8,16.5,27.9,20.6,13.9,94,76,48,30.15,29.86,19,3,24,0.00
2013-1-17,35.2,30.5,22.4,29.1,21.9,13.8,84,71,54,30.36,30.02,23,4,24,0.00
2013-1-18,39.2,29.6,21.2,27.4,20.7,14.2,82,69,60,30.42,29.98,22,5,24,0.00
2013-1-19,48.0,42.3,37.1,36.8,32.3,27.2,75,68,60,29.98,29.70,25,7,30,0.00
2013-1-20,41.4,22.0,17.7,29.3,13.1,8.4,81,69,47,30.24,29.73,42,6,44,0.00
2013-1-21,19.2,13.3,8.5,9.8,6.2,0.6,87,74,55,30.21,30.08,20,5,26,0.04
2013-1-22,13.0,7.6,2.8,5.2,1.3,-1.9,86,75,59,30.36,30.21,15,3,17,0.07
2013-1-23,18.9,14.0,8.2,16.5,6.7,0.7,90,73,59,30.33,30.10,14,2,15,0.04
2013-1-24,21.4,13.5,0.6,14.7,5.2,-3.0,90,70,46,30.63,30.19,14,1,15,0.00
2013-1-25,25.6,21.1,17.7,21.7,15.2,7.6,86,78,64,30.44,30.00,10,1,13,0.00
2013-1-26,29.3,25.8,20.2,22.5,20.2,16.9,90,79,71,30.42,30.07,10,1,12,0.00
2013-1-27,33.9,27.0,18.6,32.0,22.2,15.7,93,82,72,30.43,30.01,15,2,21,0.08
2013-1-28,49.9,43.2,33.9,48.8,41.8,32.1,100,95,91,30.02,29.85,15,3,16,0.04
2013-1-29,57.5,53.7,41.4,55.7,52.4,39.5,100,95,92,29.91,29.34,18,5,22,1.36
2013-1-30,54.5,44.4,27.4,53.1,42.6,24.3,98,93,84,29.45,29.12,22,4,26,0.85
2013-1-31,27.4,18.4,12.0,24.3,13.9,8.5,92,82,69,30.03,29.45,28,6,30,0.02